FW8918 Weather Reports


time (UTC)temp
C
wind
direction
speed
KPH
gust
KPH
rain 1hr
cm
rain 24hr
cm
rain mn
cm
humidity
%
barometer
mb
20260503054537 8 0 0.0 1.6 0.00 0.00 0.00 96 1012.4
20260503053030 8 326 1.6 4.8 0.00 0.00 0.00 96 1012.5
20260503051527 8 0 0.0 3.2 0.00 0.00 0.00 96 1012.4
20260503050030 8 0 1.6 3.2 0.00 0.00 0.00 96 1012.5
20260503044531 8 305 0.0 6.4 0.00 0.00 0.00 96 1012.5
20260503043030 8 318 1.6 6.4 0.00 0.00 0.00 96 1012.5
20260503041530 8 0 0.0 4.8 0.00 0.00 0.00 96 1012.5
20260503040032 8 251 1.6 6.4 0.00 0.00 0.00 96 1012.7
20260503034528 8 267 3.2 6.4 0.00 0.00 0.00 96 1012.7
20260503033027 8 232 1.6 9.7 0.00 0.00 0.00 96 1012.7
20260503031531 8 238 0.0 8.0 0.00 0.00 0.00 96 1013.0
20260503030033 8 0 1.6 4.8 0.00 0.00 0.00 95 1012.9
20260503024531 8 273 3.2 9.7 0.00 0.00 0.00 95 1012.9
20260503023029 8 245 3.2 8.0 0.00 0.00 0.00 95 1013.1
20260503021528 8 290 4.8 8.0 0.00 0.00 0.00 95 1013.0
20260503020030 8 343 1.6 8.0 0.00 0.00 0.00 95 1012.9
20260503014531 8 319 3.2 6.4 0.00 0.00 0.00 95 1013.0
20260503013029 8 304 3.2 12.9 0.00 0.00 0.00 95 1013.0
20260503011534 8 230 1.6 8.0 0.00 0.00 0.00 95 1013.2
20260503010033 8 291 3.2 9.7 0.00 0.00 0.00 95 1013.2
20260503004529 8 326 3.2 11.3 0.00 0.00 0.00 95 1013.4
20260503003028 8 250 4.8 8.0 0.00 0.00 0.00 95 1013.5
20260503001530 9 285 3.2 8.0 0.00 0.00 0.00 95 1013.5
20260503000031 9 295 3.2 9.7 0.00 0.00 0.00 95 1013.6
20260502234536 9 279 3.2 9.7 0.00 0.00 0.00 95 1013.8
20260502233030 9 297 3.2 12.9 0.00 0.00 0.00 95 1013.7
20260502231529 9 335 4.8 12.9 0.00 0.00 0.00 95 1013.6
20260502230030 10 278 3.2 12.9 0.00 0.00 0.00 95 1013.6
20260502224528 10 313 6.4 11.3 0.00 0.00 0.00 94 1013.4
20260502223028 10 271 4.8 16.1 0.00 0.00 0.00 94 1013.4
20260502221528 10 277 8.0 17.7 0.00 0.00 0.00 94 1013.5
20260502220031 10 264 4.8 9.7 0.00 0.00 0.00 94 1013.6
20260502214527 10 276 3.2 11.3 0.00 0.00 0.00 94 1013.6
20260502213035 10 261 3.2 9.7 0.00 0.00 0.00 94 1013.7
20260502211528 10 250 4.8 11.3 0.00 0.00 0.00 93 1013.8
20260502210028 10 283 3.2 12.9 0.00 0.00 0.00 93 1013.9
20260502204528 10 271 3.2 11.3 0.00 0.00 0.00 93 1014.0
20260502203030 10 250 3.2 11.3 0.00 0.00 0.00 93 1014.0
20260502201536 11 272 3.2 9.7 0.00 0.00 0.00 93 1014.1
20260502200030 11 288 6.4 12.9 0.00 0.00 0.00 93 1014.3
20260502194539 11 233 4.8 11.3 0.00 0.00 0.00 92 1014.3
20260502193032 11 153 4.8 9.7 0.00 0.00 0.00 91 1014.1
20260502191538 11 238 4.8 8.0 0.00 0.00 0.00 91 1014.1
20260502190029 11 239 6.4 11.3 0.00 0.00 0.00 90 1014.2
20260502184536 12 245 4.8 12.9 0.00 0.00 0.00 89 1013.9
20260502183029 12 241 4.8 11.3 0.00 0.00 0.00 89 1014.0
20260502181536 12 245 3.2 9.7 0.00 0.00 0.00 88 1013.9
20260502163048 12 261 0.0 4.8 0.00 0.00 0.00 88 1014.3
20260502161528 12 0 0.0 6.4 0.00 0.00 0.00 89 1014.6
20260502151534 13 235 6.4 12.9 0.00 0.00 0.00 80 1015.5
20260502123030 15 205 8.0 17.7 0.00 0.00 0.00 72 1016.5
20260502121530 16 155 9.7 20.9 0.00 0.00 0.00 71 1016.5
20260502114530 16 233 11.3 17.7 0.00 0.00 0.00 68 1016.5
20260502113029 16 149 9.7 16.1 0.00 0.00 0.00 68 1016.5
20260502111529 16 140 8.0 14.5 0.00 0.00 0.00 67 1016.8
20260502110032 16 186 6.4 11.3 0.00 0.00 0.00 67 1016.9
20260502104528 16 160 6.4 12.9 0.00 0.00 0.00 69 1017.0
20260502103027 15 202 6.4 14.5 0.00 0.00 0.00 70 1016.9
20260502101530 15 179 8.0 14.5 0.00 0.00 0.00 70 1017.1
20260502091530 16 165 6.4 20.9 0.00 0.00 0.00 70 1017.3
20260502071530 15 210 8.0 16.1 0.00 0.00 0.00 74 1017.5
20260502070039 14 162 6.4 17.7 0.00 0.00 0.00 76 1017.5
20260502064538 14 158 4.8 17.7 0.00 0.00 0.00 76 1017.5
20260502063030 13 160 9.7 14.5 0.00 0.00 0.00 77 1017.6
20260502061529 13 161 6.4 12.9 0.00 0.00 0.00 79 1017.7
20260502060031 13 159 6.4 16.1 0.00 0.00 0.00 79 1017.7